• Join FlightAware (Why Join?)
  • Login
  • US Flag 
Gobble Gobble! 
08:15AM EST


 

Airport Tracker/Info


-or-


 

Live Flight TrackerFlight Track Log ✈ N541JD ✈ 13-Jun-2014 ✈ KEKY - 3J7

Flight Track Log - Related Links

Times and Time Zones

All times are in EDT time to prevent confusion due to time zone crossing. See the N541JD flight status page for this flight to view local times or setup timezone preferences in your user account.

Time Position Orientation Groundspeed Altitude Reporting Facility
EDT Latitude Longitude Course Direction KTS MPH feet Rate Location/Type
06:20PM 33.2847 -86.9214 114° Southeast 141 162 1,800  Level Atlanta Center
06:21PM 33.2756 -86.8589 100° East 151 174 2,800 780 Climbing Atlanta Center
06:22PM 33.2686 -86.8042 99° East 144 166 3,800 840 Climbing Atlanta Center
06:23PM 33.2589 -86.7639 106° East 138 159 4,600 780 Climbing Atlanta Center
06:24PM 33.3493 -86.5151 100° East  Level Estimated
06:24PM 33.2453 -86.7214 111° Southeast 146 168 5,300  Level Atlanta Center
06:25PM 33.3294 -86.4610 114° Southeast  Level FlightAware Approximate
06:25PM 33.2461 -86.6792 89° East 144 166 5,900  Level Atlanta Center
06:26PM 33.2369 -86.6267 102° East 149 171 6,600 600 Climbing Atlanta Center
06:27PM 33.2275 -86.5792 103° East 146 168 7,200 600 Climbing Atlanta Center
06:28PM 33.2200 -86.5344 101° East 143 165 7,900 600 Climbing Atlanta Center
06:29PM 33.2147 -86.4844 97° East 146 168 8,500 480 Climbing Atlanta Center
06:30PM 33.2094 -86.4372 98° East 151 174 8,900 240 Climbing Atlanta Center
06:31PM 33.2022 -86.3825 99° East 170 196 9,000 60 Climbing Atlanta Center
06:32PM 33.1969 -86.3203 96° East 199 229 9,100  Climbing Atlanta Center
06:33PM 33.1897 -86.2606 98° East 193 222 9,000 -60 Descending Atlanta Center
06:34PM 33.1803 -86.2031 101° East 188 216 9,000  Level Atlanta Center
06:35PM 33.1731 -86.1483 99° East 174 200 9,000  Level Atlanta Center
06:36PM 33.1678 -86.0911 96° East 174 200 9,000  Level Atlanta Center
06:37PM 33.1603 -86.0314 99° East 169 194 9,000  Level Atlanta Center
06:38PM 33.1508 -85.9792 102° East 169 194 9,000  Level Atlanta Center
06:39PM 33.1433 -85.9194 99° East 169 194 9,000  Level Atlanta Center
06:40PM 33.1378 -85.8622 97° East 169 194 9,000  Level Atlanta Center
06:41PM 33.1283 -85.8050 101° East 169 194 9,000  Level Atlanta Center
06:42PM 33.1208 -85.7503 99° East 169 194 9,000  Level Atlanta Center
06:43PM 33.1131 -85.6906 99° East 169 194 9,000  Level Atlanta Center
06:44PM 33.1078 -85.6333 96° East 169 194 9,000  Level Atlanta Center
06:45PM 33.0981 -85.5761 101° East 169 194 9,000  Level Atlanta Center
06:46PM 33.0883 -85.5139 101° East 169 194 9,000  Level Atlanta Center
06:47PM 33.0825 -85.4644 98° East 169 194 9,000  Level Atlanta Center
06:49PM 33.0667 -85.3333 98° East 177 204 9,000  Level Atlanta TRACON
06:50PM 33.0500 -85.2833 112° Southeast 174 200 9,000  Level Atlanta TRACON
06:51PM 33.0500 -85.2167 90° East 176 203 9,000  Level Atlanta TRACON
06:52PM 33.0500 -85.1667 90° East 168 193 9,000  Level Atlanta TRACON
06:54PM 33.0500 -85.1000 90° East 171 197 9,000 -120 Level Atlanta TRACON
06:55PM 33.0500 -85.0500 90° East 174 200 8,800 -360 Descending Atlanta TRACON
06:56PM 33.0500 -84.9833 90° East 191 220 8,300 -540 Descending Atlanta TRACON
06:56PM 33.0500 -84.9333 90° East 197 227 7,800 -600 Descending Atlanta TRACON
06:57PM 33.0500 -84.8500 90° East 196 226 7,200 -420 Descending Atlanta TRACON
06:58PM 33.0500 -84.8000 90° East 183 211 7,000 -120 Descending Atlanta TRACON
06:59PM 33.0667 -84.7333 73° East 174 200 7,000  Level Atlanta TRACON
07:00PM 33.0667 -84.6833 90° East 180 207 7,000  Level Atlanta TRACON
07:01PM 33.0667 -84.6167 90° East 187 215 7,000  Level Atlanta TRACON
07:02PM 33.0667 -84.5667 90° East 183 211 7,000  Level Atlanta TRACON
07:03PM 33.0667 -84.5000 90° East 186 214 7,000 -240 Level Atlanta TRACON
07:04PM 33.0833 -84.4333 73° East 198 228 6,600 -420 Descending Atlanta TRACON
07:05PM 33.1000 -84.3833 68° East 197 227 6,200 -480 Descending Atlanta TRACON
07:06PM 33.1333 -84.3167 59° Northeast 198 228 5,700 -540 Descending Atlanta TRACON
07:07PM 33.1500 -84.2667 68° East 198 228 5,200 -360 Descending Atlanta TRACON
07:08PM 33.1833 -84.2000 59° Northeast 194 223 5,000 -120 Descending Atlanta TRACON
07:09PM 33.2000 -84.1500 68° East 189 217 5,000  Level Atlanta TRACON
07:10PM 33.2167 -84.1000 68° East 190 219 5,000  Level Atlanta TRACON
07:11PM 33.2500 -84.0333 59° Northeast 186 214 5,000  Level Atlanta TRACON
07:12PM 33.2667 -83.9833 68° East 184 212 5,000  Level Atlanta TRACON
07:13PM 33.2833 -83.9333 68° East 175 201 5,000  Level Atlanta TRACON
07:14PM 33.3000 -83.8667 73° East 185 213 5,000  Level Atlanta TRACON
07:15PM 33.3333 -83.8167 51° Northeast 185 213 5,000  Level Atlanta TRACON
07:16PM 33.3500 -83.7667 68° East 183 211 5,000  Level Atlanta TRACON
07:17PM 33.3667 -83.7167 68° East 180 207 5,000  Level Atlanta TRACON
07:18PM 33.4000 -83.6500 59° Northeast 180 207 5,000  Level Atlanta TRACON
07:20PM 33.4167 -83.6000 68° East 182 209 5,000  Level Atlanta TRACON
07:20PM 33.4333 -83.5333 73° East 195 224 5,000  Level Atlanta TRACON
07:22PM 33.4500 -83.5000 59° Northeast 161 185 5,000  Level Atlanta TRACON
07:23PM 33.4833 -83.4333 59° Northeast 173 199 5,000  Level Atlanta TRACON